This is the latest recevied weather packets stored in our database for station/object NE8U. If no packets are shown the sender has not sent any weather packets the latest 10 day(s).
| Time | Temp. | Humidity | Pressure | Rain* | Wind** | Luminosity | Snow |
|---|---|---|---|---|---|---|---|
| 1777662327 | 27.22° C | 25% | 1014.2 hPa | 0 mm | - | 802 W/m² | - |
| 1777662023 | 27.22° C | 25% | 1014.3 hPa | 0 mm | - | 801 W/m² | - |
| 1777661720 | 27.22° C | 26% | 1014.3 hPa | 0 mm | - | 792 W/m² | - |
| 1777661415 | 27.22° C | 26% | 1014.4 hPa | 0 mm | - | 773 W/m² | - |
| 1777661112 | 27.78° C | 26% | 1014.3 hPa | 0 mm | - | 772 W/m² | - |
| 1777660806 | 26.67° C | 26% | 1014.6 hPa | 0 mm | - | 772 W/m² | - |
| 1777660504 | 26.67° C | 27% | 1014.5 hPa | 0 mm | - | 793 W/m² | - |
| 1777660200 | 26.67° C | 27% | 1014.5 hPa | 0 mm | - | 784 W/m² | - |
| 1777659897 | 26.67° C | 25% | 1014.8 hPa | 0 mm | - | 785 W/m² | - |
| 1777659594 | 26.67° C | 26% | 1014.8 hPa | 0 mm | - | 776 W/m² | - |
| 1777659291 | 25.56° C | 28% | 1014.8 hPa | 0 mm | - | 776 W/m² | - |
| 1777658988 | 26.11° C | 29% | 1015 hPa | 0 mm | - | 751 W/m² | - |
| 1777658685 | 26.67° C | 29% | 1015 hPa | 0 mm | - | 751 W/m² | - |
| 1777658381 | 25.56° C | 28% | 1015.3 hPa | 0 mm | - | 756 W/m² | - |
| 1777658078 | 25.56° C | 30% | 1015.2 hPa | 0 mm | - | 731 W/m² | - |
| 1777657775 | 26.11° C | 31% | 1015.1 hPa | 0 mm | - | 727 W/m² | - |
| 1777657472 | 25.56° C | 31% | 1015.1 hPa | 0 mm | - | 761 W/m² | - |
| 1777657170 | 25° C | 32% | 1015.2 hPa | 0 mm | - | 792 W/m² | - |
| 1777656867 | 25.56° C | 31% | 1015.2 hPa | 0 mm | - | 812 W/m² | - |
| 1777656563 | 25.56° C | 32% | 1015.1 hPa | 0 mm | - | 813 W/m² | - |
| 1777656259 | 25° C | 32% | 1015.3 hPa | 0 mm | - | 794 W/m² | - |
| 1777655954 | 25° C | 33% | 1015.3 hPa | 0 mm | - | 799 W/m² | - |
| 1777655650 | 24.44° C | 35% | 1015.3 hPa | 0 mm | - | 815 W/m² | - |
| 1777655347 | 25° C | 34% | 1015.4 hPa | 0 mm | - | 812 W/m² | - |
| 1777655044 | 25° C | 33% | 1015.3 hPa | 0 mm | - | 822 W/m² | - |
* Rain latest hour (hover to see other rain measurements)
** Current wind speed in m/s (hover to see current wind gust speed)